{"data":{"norad_id":57994,"epoch":"2026-09-20T03:16:03.723744Z","epoch_age_seconds":169059,"freshness":"FRESH","line1":"1 57994U 23153D   26263.13615421 -.00000189  00000+0  26516-5 0  9993","line2":"2 57994  43.0052  48.9861 0001749 263.7676  96.2977 15.27575938164535","mean_motion":15.27575938,"eccentricity":0.0001749,"inclination_deg":43.0052,"raan_deg":48.9861,"arg_perigee_deg":263.7676,"mean_anomaly_deg":96.2977,"bstar":2.6516e-6,"rev_number":16453,"period_min":94.266999379772,"perigee_km":481.86123558038,"apogee_km":484.26128273143,"semimajor_km":6861.1982591559,"source":"CELESTRAK","updated_at":"2026-09-21T09:00:33.753586Z"}}